{"data":{"norad_id":65580,"epoch":"2026-05-25T03:30:21.528864Z","epoch_age_seconds":56234,"freshness":"FRESH","line1":"1 65580U 25203R   26145.14608251  .00000098  00000+0  78443-4 0  9997","line2":"2 65580  81.3054  32.2068 0006414 253.7652 106.2799 13.83148021 35501","mean_motion":13.83148021,"eccentricity":0.0006414,"inclination_deg":81.3054,"raan_deg":32.2068,"arg_perigee_deg":253.7652,"mean_anomaly_deg":106.2799,"bstar":7.8443e-5,"rev_number":3550,"period_min":104.11033223754,"perigee_km":948.0402590849,"apogee_km":957.44431103177,"semimajor_km":7330.8792850583,"source":"CELESTRAK","updated_at":"2026-05-25T13:38:25.171586Z"}}